Left ArrowRight Arrow

Hourly Observations for February 2, 2021

Temp ( °F °C ) Dew Point ( °F °C ) Humidity (%) Winds ( mph kmh ) Pressure ( in mb ) Visibility ( mi km ) Precip ( " mm )
12:15 am 00:15 Cloudy 54 12 52 11 94 94 SE 21 33 30.00 1016 5 8 0.01 0.25
12:35 am 00:35 Mostly Cloudy 54 12 52 11 94 94 SE 18 30 30.00 1016 10 16 0.01 0.25
12:55 am 00:55 Mostly Cloudy 54 12 52 11 94 94 SE 18 30 30.00 1016 7 11 0.03 0.76
1:15 am 01:15 Cloudy 54 12 52 11 94 94 SE 18 30 29.99 1016 5 8 0.01 0.25
1:35 am 01:35 Cloudy 54 12 52 11 94 94 SE 17 28 30.00 1016 5 8 0.03 0.76
1:55 am 01:55 Cloudy 54 12 52 11 94 94 SE 20 31 30.00 1016 10 16 0.04 1.02
2:15 am 02:15 Cloudy 54 12 52 11 94 94 SE 20 31 30.01 1016 3 5 0.02 0.51
2:35 am 02:35 Cloudy 54 12 52 11 94 94 SE 17 28 30.00 1016 5 8 0.04 1.02
2:55 am 02:55 Cloudy 54 12 52 11 94 94 SE 18 30 30.01 1016 5 8 0.07 1.78
3:15 am 03:15 Cloudy 54 12 52 11 94 94 SE 17 28 30.01 1016 10 16 0.00 0.00
3:35 am 03:35 Cloudy 54 12 52 11 94 94 SE 22 35 30.01 1016 10 16 0.00 0.00
4:15 am 04:15 Cloudy 54 12 52 11 94 94 SE 23 37 30.01 1016 9 14 0.00 0.00
4:35 am 04:35 Cloudy 54 12 52 11 94 94 SE 20 31 30.02 1017 10 16 0.00 0.00
4:55 am 04:55 Cloudy 54 12 52 11 94 94 SE 18 30 30.02 1017 10 16 0.00 0.00
5:15 am 05:15 Cloudy 54 12 52 11 94 94 SE 21 33 30.03 1017 10 16 0.00 0.00
5:35 am 05:35 Cloudy 54 12 52 11 94 94 SE 18 30 30.03 1017 10 16 0.00 0.00
5:55 am 05:55 Cloudy 54 12 52 11 94 94 SE 20 31 30.03 1017 10 16 0.00 0.00
6:15 am 06:15 Cloudy 54 12 50 10 88 88 SE 21 33 30.04 1017 10 16 0.00 0.00
6:47 am 06:47 Cloudy 52 11 50 10 94 94 ESE 23 37 30.04 1017 10 16 0.00 0.00
7:47 am 07:47 Cloudy 52 11 50 10 94 94 SE 15 24 30.07 1018 10 16 0.00 0.00
8:47 am 08:47 Cloudy 52 11 48 9 88 88 SE 21 33 30.08 1019 10 16 0.00 0.00
9:05 am 09:05 Cloudy 52 11 48 9 88 88 SE 14 22 30.09 1019 10 16 0.00 0.00
9:47 am 09:47 Cloudy 54 12 50 10 88 88 SE 21 33 30.10 1019 25 40 0.00 0.00
10:51 am 10:51 Cloudy 54 12 50 10 88 88 SE 20 31 30.11 1020 10 16 0.00 0.00
11:47 am 11:47 Mostly Cloudy 55 13 50 10 82 82 SE 15 24 30.11 1020 10 16 0.00 0.00
12:48 pm 12:48 Partly Cloudy 55 13 50 10 82 82 SE 14 22 30.09 1019 10 16 0.00 0.00
1:57 pm 13:57 Partly Cloudy 57 14 48 9 72 72 SE 15 24 30.07 1018 25 40 0.00 0.00
2:47 pm 14:47 Partly Cloudy 57 14 46 8 67 67 SE 16 26 30.07 1018 25 40 0.00 0.00
3:49 pm 15:49 Partly Cloudy 57 14 48 9 72 72 SE 16 26 30.07 1018 40 64 0.00 0.00
4:53 pm 16:53 Mostly Cloudy 55 13 48 9 77 77 SE 17 28 30.07 1018 25 40 0.00 0.00
5:52 pm 17:52 Partly Cloudy 55 13 48 9 77 77 SE 12 19 30.07 1018 10 16 0.00 0.00
6:50 pm 18:50 Mostly Cloudy 54 12 48 9 82 82 SE 12 19 30.09 1019 10 16 0.00 0.00
8:15 pm 20:15 Cloudy 52 11 46 8 82 82 SE 7 11 30.11 1020 10 16 0.00 0.00
8:35 pm 20:35 Mostly Cloudy 50 10 46 8 88 88 SE 7 11 30.11 1020 10 16 0.00 0.00
8:55 pm 20:55 Clear 50 10 46 8 88 88 Calm 30.12 1020 10 16 0.00 0.00
9:15 pm 21:15 Partly Cloudy 50 10 46 8 88 88 ESE 6 9 30.12 1020 10 16 0.00 0.00
9:35 pm 21:35 Clear 48 9 46 8 94 94 SE 6 9 30.13 1020 10 16 0.00 0.00
9:55 pm 21:55 Clear 48 9 46 8 94 94 SE 6 9 30.14 1020 10 16 0.00 0.00
10:15 pm 22:15 Clear 48 9 46 8 94 94 ESE 5 7 30.14 1020 10 16 0.00 0.00
10:35 pm 22:35 Clear 48 9 46 8 94 94 SE 7 11 30.15 1021 10 16 0.00 0.00
10:55 pm 22:55 Clear 48 9 45 7 87 87 SE 6 9 30.15 1021 10 16 0.00 0.00
11:15 pm 23:15 Clear 48 9 45 7 87 87 SE 7 11 30.16 1021 10 16 0.00 0.00
11:35 pm 23:35 Clear 46 8 43 6 87 87 SE 7 11 30.16 1021 10 16 0.00 0.00
11:55 pm 23:55 Clear 46 8 43 6 87 87 SE 6 9 30.16 1021 10 16 0.00 0.00

Powered by Vaisala Xweather